[[{"header":{"parameterUnit":"m.s-1","parameterCategory":2,"la1":30.2992,"la2":30.254,"lo1":-89.0895,"lo2":-89.0443,"dy":0.0025,"dx":0.0025,"nx":19,"ny":19,"refTime":"2026-03-20T03:00:00:Z","depth":"0","parameterNumber":2,"parameterNumberName":"U-component_of_CURRENTS"},"data":[0,0,0,0.2009,0.201,0.2024,0.2024,0.2026,0.2027,0,0,0,0,0,0,0,0,0,0,0,0.1988,0.1988,0.2009,0.201,0.2025,0.2024,0.2026,0.2027,0,0,0,0,0,0,0,0,0,0,0,0.1988,0.1988,0.1988,0.201,0.2025,0.2024,0.2026,0.2016,0,0,0,0,0,0,0,0,0,0,0.2002,0.1978,0.1988,0.1988,0.201,0.2025,0.2024,0.2015,0.2016,0.202,0,0.2022,0,0.2039,0.2028,0.2028,0,0,0,0.1994,0.1977,0.2,0.1988,0.2011,0.2025,0.2013,0.2016,0.2017,0.2022,0.2023,0.2023,0.2039,0.2028,0.2028,0.2061,0.2061,0,0,0.1993,0.1972,0.1999,0.2,0.2015,0.2013,0.2014,0.2016,0.2007,0.2023,0.2024,0.2039,0.2028,0.2028,0.2061,0.2061,0,0,0,0.2002,0.1971,0.1993,0.2,0.2012,0.2014,0.2015,0.2006,0.2018,0.2024,0.2039,0.2028,0.2028,0.2061,0.2061,0.2157,0,0,0,0.2,0.1979,0.1993,0.1978,0.2012,0.201,0.2004,0.2017,0.2019,0.2039,0.2028,0.2029,0.206,0.2061,0.2154,0.216,0,0,0,0.1987,0.1977,0.1983,0.1978,0.1996,0.201,0.2021,0.2018,0.203,0.2028,0.2029,0.206,0.2061,0.2151,0.2156,0.2202,0,0,0,0.196,0.195,0.1982,0.1987,0.1996,0.2054,0.2021,0.206,0.2067,0.2028,0.206,0.2061,0.215,0.2153,0.2199,0.226,0.2278,0,0,0.1933,0.1945,0.1956,0.1986,0.2047,0.2051,0.2101,0.2098,0.2069,0.2055,0.2056,0.2155,0.2155,0.2202,0.229,0.2307,0,0,0,0.194,0.1946,0.1974,0.2013,0.2071,0.2113,0.2128,0.2142,0.2147,0.2078,0.2138,0.2134,0.2161,0.2192,0.2205,0.2208,0.2063,0.2063,0.2063,0.1841,0.1911,0.1949,0.2036,0.2079,0.2162,0.2201,0.221,0.2197,0.2217,0.2203,0.2282,0.2316,0.2326,0.2329,0.2208,0.2209,0.2209,0.2209,0.1813,0.1847,0.1937,0.1995,0.2082,0.2128,0.2237,0.2264,0.2322,0.2278,0.2302,0.2277,0.2347,0.2344,0.2215,0.2214,0.2213,0.2213,0.2212,0.1756,0.1789,0.1828,0.1928,0.2002,0.2106,0.2185,0.228,0.2359,0.2408,0.2423,0.2421,0.2426,0.2424,0.2424,0.2425,0.2425,0.2425,0.2425,0.1679,0.1732,0.1782,0.1875,0.1925,0.2006,0.2161,0.2241,0.2413,0.2499,0.25,0.2454,0.2346,0.2346,0.2429,0.2429,0.2428,0.2428,0.2427,0.165,0.1672,0.172,0.177,0.1886,0.1924,0.2071,0.2284,0.2407,0.2508,0.2626,0.2559,0.2525,0.2514,0.2517,0.2639,0.2639,0.2639,0.2639,0.1626,0.1649,0.1682,0.1734,0.1811,0.1889,0.1995,0.2199,0.2516,0.2672,0.2714,0.2693,0.2684,0.2657,0.2642,0.2645,0.2797,0.2797,0.2797,0.1637,0.1626,0.1629,0.1678,0.1771,0.1834,0.1915,0.2108,0.2579,0.28,0.2709,0.2702,0.2664,0.2649,0.2594,0.2574,0.2573,0,0]},{"header":{"parameterUnit":"m.s-1","parameterCategory":2,"la1":30.2992,"la2":30.254,"lo1":-89.0895,"lo2":-89.0443,"dy":0.0025,"dx":0.0025,"nx":19,"ny":19,"refTime":"2026-03-20T03:00:00:Z","depth":"0","parameterNumber":3,"parameterNumberName":"V-component_of_CURRENTS"},"data":[0,0,0,-0.1016,-0.1012,-0.078,-0.0778,-0.0558,-0.0557,0,0,0,0,0,0,0,0,0,0,0,-0.1086,-0.1085,-0.1016,-0.1012,-0.078,-0.0778,-0.0559,-0.0557,0,0,0,0,0,0,0,0,0,0,0,-0.1086,-0.1085,-0.1084,-0.1011,-0.078,-0.0778,-0.0559,-0.0704,0,0,0,0,0,0,0,0,0,0,-0.0915,-0.0955,-0.1086,-0.1084,-0.101,-0.0781,-0.0778,-0.0709,-0.0695,-0.0701,0,-0.0683,0,-0.0642,-0.0549,-0.0548,0,0,0,-0.0965,-0.0967,-0.0947,-0.1084,-0.1009,-0.0781,-0.0871,-0.07,-0.0684,-0.0682,-0.0679,-0.0671,-0.0639,-0.0548,-0.0547,-0.04,-0.0399,0,0,-0.0978,-0.0996,-0.0958,-0.0937,-0.0974,-0.0879,-0.0865,-0.0689,-0.0661,-0.0678,-0.0665,-0.0635,-0.0547,-0.0546,-0.04,-0.04,0,0,0,-0.1047,-0.1005,-0.0985,-0.0947,-0.0913,-0.0874,-0.0857,-0.0667,-0.0673,-0.0662,-0.0633,-0.0546,-0.0545,-0.0401,-0.04,-0.0401,0,0,0,-0.1052,-0.1049,-0.0992,-0.0993,-0.0917,-0.077,-0.0839,-0.0683,-0.0663,-0.0634,-0.0546,-0.0543,-0.0402,-0.0401,-0.0402,-0.0381,0,0,0,-0.1092,-0.1052,-0.1043,-0.0996,-0.0922,-0.0772,-0.0762,-0.0676,-0.0648,-0.0548,-0.0543,-0.0402,-0.0401,-0.0404,-0.0383,-0.0312,0,0,0,-0.1093,-0.1041,-0.1043,-0.0967,-0.0925,-0.079,-0.0762,-0.0638,-0.0551,-0.0545,-0.0402,-0.04,-0.0404,-0.0385,-0.0315,-0.0189,-0.0167,0,0,-0.1028,-0.1032,-0.099,-0.0988,-0.0881,-0.0817,-0.0674,-0.0564,-0.0532,-0.0459,-0.0454,-0.0402,-0.0384,-0.0313,-0.0101,-0.0082,0,0,0,-0.097,-0.0942,-0.0909,-0.0847,-0.0774,-0.0679,-0.0573,-0.0529,-0.0432,-0.0483,-0.037,-0.0357,-0.0313,-0.0242,-0.0226,-0.0252,-0.0393,-0.0393,-0.0394,-0.0895,-0.0872,-0.0789,-0.0748,-0.0676,-0.0564,-0.0479,-0.0401,-0.0396,-0.0359,-0.0336,-0.025,-0.0174,-0.016,-0.019,-0.0321,-0.0321,-0.0321,-0.0321,-0.0795,-0.0745,-0.0719,-0.0637,-0.0587,-0.0485,-0.0382,-0.0359,-0.0256,-0.0288,-0.0245,-0.0218,-0.0143,-0.018,-0.0321,-0.0321,-0.0321,-0.0321,-0.0321,-0.074,-0.0712,-0.0674,-0.0585,-0.0501,-0.0437,-0.0306,-0.0266,-0.0233,-0.0195,-0.0083,-0.0082,-0.013,-0.0173,-0.0172,-0.0172,-0.0171,-0.0171,-0.0171,-0.0697,-0.0655,-0.0597,-0.0528,-0.0473,-0.0376,-0.0253,-0.0168,-0.0067,-0.0038,-0.0037,-0.0081,-0.0203,-0.0227,-0.0165,-0.0166,-0.0166,-0.0167,-0.0168,-0.0615,-0.0627,-0.052,-0.0467,-0.033,-0.0176,-0.0103,0.0101,0.0156,0.0231,0.0139,0.0064,0.0092,0.008,0.0065,0.02,0.02,0.02,0.02,-0.0591,-0.0584,-0.0429,-0.0309,-0.018,-0.0058,0.0228,0.038,0.0389,0.0376,0.0271,0.0236,0.0222,0.0252,0.0238,0.0224,0.0395,0.0395,0.0395,-0.0558,-0.0506,-0.0378,-0.0247,-0.0093,0.0102,0.0409,0.0674,0.06,0.0392,0.0208,0.02,0.013,0.0111,0.0139,0.012,0.009,0,0]}],[{"header":{"parameterUnit":"m.s-1","parameterCategory":2,"la1":30.2992,"la2":30.254,"lo1":-89.0895,"lo2":-89.0443,"dy":0.0025,"dx":0.0025,"nx":19,"ny":19,"refTime":"2026-03-20T03:00:00:Z","depth":"2","parameterNumber":2,"parameterNumberName":"U-component_of_CURRENTS"},"data":[0,0,0,-0.0475,-0.0471,-0.0278,-0.0277,-0.008,-0.0079,0,0,0,0,0,0,0,0,0,0,0,-0.053,-0.0528,-0.0475,-0.047,-0.0278,-0.0277,-0.0081,-0.0079,0,0,0,0,0,0,0,0,0,0,0,-0.0531,-0.0529,-0.0526,-0.047,-0.0278,-0.0277,-0.0081,-0.0214,0,0,0,0,0,0,0,0,0,0,-0.0395,-0.0423,-0.0529,-0.0526,-0.0469,-0.0278,-0.0277,-0.022,-0.0206,-0.0182,0,-0.0135,0,-0.0107,-0.0067,-0.0066,0,0,0,-0.047,-0.0434,-0.0399,-0.0526,-0.0467,-0.0279,-0.0365,-0.0212,-0.0196,-0.0164,-0.0132,-0.0124,-0.0103,-0.0066,-0.0065,0.0332,0.0335,0,0,-0.0481,-0.0482,-0.041,-0.0388,-0.0394,-0.0371,-0.0359,-0.0201,-0.0166,-0.0131,-0.0119,-0.01,-0.0064,-0.0063,0.0329,0.0332,0,0,0,-0.0512,-0.0489,-0.0456,-0.0397,-0.036,-0.0365,-0.0351,-0.0173,-0.0166,-0.0117,-0.0098,-0.0063,-0.0061,0.0326,0.033,0.0294,0,0,0,-0.0518,-0.0507,-0.046,-0.0457,-0.0362,-0.0253,-0.0326,-0.0176,-0.0158,-0.0099,-0.0063,-0.0059,0.0322,0.0328,0.0288,0.0335,0,0,0,-0.0543,-0.051,-0.0485,-0.0458,-0.0378,-0.0255,-0.0237,-0.0171,-0.0146,-0.0066,-0.0059,0.032,0.0327,0.0282,0.0326,0.0444,0,0,0,-0.0557,-0.0463,-0.0483,-0.0385,-0.038,-0.0266,-0.0238,-0.0128,-0.0055,-0.0062,0.0323,0.033,0.028,0.032,0.0438,0.0345,0.0368,0,0,-0.045,-0.045,-0.0401,-0.0415,-0.0317,-0.0294,-0.0148,-0.0038,0.0076,0.0258,0.0268,0.029,0.0325,0.0443,0.0757,0.0766,0,0,0,-0.0377,-0.0335,-0.0316,-0.0256,-0.021,-0.0116,-0.0031,0.0061,0.0295,0.0156,0.0447,0.0476,0.0546,0.0482,0.0494,0.0364,0.0363,0.0362,0.0361,-0.0254,-0.0248,-0.0154,-0.0127,-0.0062,0.0034,0.0142,0.0326,0.0349,0.0516,0.0557,0.0788,0.0724,0.073,0.0656,0.0656,0.0656,0.0656,0.0656,-0.0128,-0.0045,-0.0044,0.006,0.0119,0.0249,0.0399,0.0458,0.0715,0.0715,0.0783,0.059,0.0738,0.0657,0.0657,0.0656,0.0656,0.0656,0.0656,-0.0012,0.0042,0.0069,0.0162,0.0333,0.0416,0.0626,0.0714,0.0801,0.0865,0.0882,0.088,0.0723,0.0922,0.0923,0.0924,0.0925,0.0925,0.0926,0.0109,0.0134,0.0183,0.0283,0.039,0.059,0.0798,0.0907,0.0964,0.0945,0.0944,0.0881,0.0872,0.075,0.0937,0.0935,0.0934,0.0933,0.0932,0.0235,0.0177,0.0303,0.0363,0.056,0.0714,0.0877,0.102,0.1126,0.1128,0.0988,0.0983,0.1008,0.0999,0.0888,0.1101,0.1101,0.1101,0.1101,0.0252,0.0244,0.0378,0.0493,0.0632,0.0792,0.0919,0.0956,0.0975,0.0925,0.0932,0.0785,0.0782,0.0788,0.0784,0.0665,0.0821,0.082,0.0819,0.0192,0.0323,0.0413,0.0558,0.0682,0.0832,0.0897,0.0884,0.0833,0.0806,0.0861,0.1086,0.0882,0.0874,0.0889,0.088,0.0691,0,0]},{"header":{"parameterUnit":"m.s-1","parameterCategory":2,"la1":30.2992,"la2":30.254,"lo1":-89.0895,"lo2":-89.0443,"dy":0.0025,"dx":0.0025,"nx":19,"ny":19,"refTime":"2026-03-20T03:00:00:Z","depth":"2","parameterNumber":3,"parameterNumberName":"V-component_of_CURRENTS"},"data":[0,0,0,0.0313,0.0312,0.0218,0.0218,0.0097,0.0096,0,0,0,0,0,0,0,0,0,0,0,0.0333,0.0333,0.0313,0.0312,0.0218,0.0218,0.0097,0.0096,0,0,0,0,0,0,0,0,0,0,0,0.0333,0.0333,0.0332,0.0311,0.0219,0.0218,0.0097,0.0161,0,0,0,0,0,0,0,0,0,0,0.0249,0.0272,0.0333,0.0332,0.0311,0.0219,0.0217,0.0164,0.0157,0.0147,0,0.014,0,0.0133,0.009,0.009,0,0,0,0.0284,0.0277,0.0266,0.0332,0.0311,0.0219,0.0253,0.016,0.0152,0.0138,0.0139,0.0135,0.0131,0.009,0.0089,-0.0023,-0.0023,0,0,0.029,0.0299,0.0272,0.0262,0.0297,0.0256,0.025,0.0155,0.0144,0.0138,0.0132,0.0129,0.0089,0.0088,-0.0022,-0.0023,0,0,0,0.0323,0.0302,0.0292,0.0266,0.0259,0.0254,0.0247,0.0147,0.0148,0.0131,0.0128,0.0089,0.0088,-0.0022,-0.0022,0.0078,0,0,0,0.0325,0.0324,0.0295,0.0297,0.0262,0.0202,0.0241,0.0154,0.0143,0.0128,0.0089,0.0087,-0.0021,-0.0022,0.0077,0.0152,0,0,0,0.0335,0.0325,0.0321,0.0298,0.0273,0.0203,0.0196,0.0151,0.0143,0.009,0.0087,-0.002,-0.0022,0.0076,0.0148,0.0173,0,0,0,0.0338,0.0333,0.032,0.0326,0.0274,0.0258,0.0197,0.0141,0.0096,0.0088,-0.0021,-0.0022,0.0076,0.0145,0.017,0.0216,0.023,0,0,0.0336,0.0332,0.0343,0.0331,0.0339,0.0269,0.0253,0.0149,0.0068,0.0007,0.0004,0.0078,0.0148,0.0172,0.0133,0.0151,0,0,0,0.0348,0.0351,0.0351,0.0357,0.0342,0.032,0.0225,0.0166,0.0062,0.0041,0.002,0.006,0.0073,0.0093,0.0106,-0.0029,-0.0029,-0.0029,-0.0029,0.0331,0.0357,0.0377,0.0398,0.0388,0.0332,0.0295,0.019,0.0108,0.005,0.0099,0.013,0.0148,0.016,0.003,0.003,0.0031,0.0031,0.0031,0.0368,0.0369,0.0417,0.0436,0.0431,0.0397,0.034,0.0271,0.0213,0.0126,0.0132,0.0144,0.0181,0.0038,0.0037,0.0036,0.0035,0.0034,0.0034,0.0323,0.0328,0.0376,0.0453,0.0423,0.04,0.0408,0.0363,0.0295,0.0319,0.0286,0.0284,0.0235,0.0296,0.0296,0.0296,0.0297,0.0297,0.0297,0.0251,0.0308,0.0368,0.0433,0.045,0.0429,0.0439,0.0473,0.0478,0.0408,0.0406,0.0219,0.0211,0.0247,0.0304,0.0303,0.0302,0.0301,0.0301,0.0231,0.0248,0.0336,0.0402,0.0494,0.0547,0.0569,0.0663,0.0665,0.068,0.0444,0.0438,0.0413,0.0401,0.0438,0.0542,0.0542,0.0542,0.0542,0.0201,0.023,0.0332,0.046,0.0581,0.0612,0.0792,0.0706,0.0601,0.0433,0.0436,0.0369,0.0364,0.033,0.0319,0.0351,0.0432,0.0432,0.0431,0.0274,0.0251,0.0334,0.0449,0.0632,0.0724,0.0869,0.0775,0.0487,0.0416,0.0308,0.0556,0.0466,0.0454,0.0404,0.0385,0.0438,0,0]}],[{"header":{"parameterUnit":"m.s-1","parameterCategory":2,"la1":30.2992,"la2":30.254,"lo1":-89.0895,"lo2":-89.0443,"dy":0.0025,"dx":0.0025,"nx":19,"ny":19,"refTime":"2026-03-20T03:00:00:Z","depth":"4","parameterNumber":2,"parameterNumberName":"U-component_of_CURRENTS"},"data":[0,0,0,-0.0377,-0.038,-0.0505,-0.0506,-0.0616,-0.0617,0,0,0,0,0,0,0,0,0,0,0,-0.0342,-0.0343,-0.0377,-0.038,-0.0505,-0.0506,-0.0616,-0.0617,0,0,0,0,0,0,0,0,0,0,0,-0.0341,-0.0343,-0.0344,-0.0381,-0.0505,-0.0506,-0.0616,-0.0534,0,0,0,0,0,0,0,0,0,0,-0.0418,-0.0359,-0.0342,-0.0344,-0.0382,-0.0505,-0.0506,-0.053,-0.0539,-0.0547,0,-0.0579,0,-0.0598,-0.0624,-0.0624,0,0,0,-0.0378,-0.0352,-0.042,-0.0345,-0.0383,-0.0505,-0.0448,-0.0535,-0.0545,-0.0558,-0.0581,-0.0585,-0.06,-0.0624,-0.0625,-0.0718,-0.0719,0,0,-0.0372,-0.0329,-0.0413,-0.0426,-0.0432,-0.0444,-0.0452,-0.0542,-0.0537,-0.0581,-0.0588,-0.0602,-0.0625,-0.0626,-0.0718,-0.0718,0,0,0,-0.0353,-0.0323,-0.0389,-0.0421,-0.0447,-0.0448,-0.0457,-0.0533,-0.0566,-0.0589,-0.0603,-0.0626,-0.0627,-0.0718,-0.0718,-0.0654,0,0,0,-0.0349,-0.0314,-0.0386,-0.0357,-0.0446,-0.0489,-0.0445,-0.056,-0.057,-0.0603,-0.0626,-0.0628,-0.0717,-0.0718,-0.0655,-0.0634,0,0,0,-0.0333,-0.031,-0.0339,-0.0355,-0.0414,-0.0489,-0.0525,-0.0562,-0.0578,-0.0624,-0.0628,-0.0717,-0.0718,-0.0656,-0.0636,-0.0575,0,0,0,-0.0266,-0.0297,-0.0337,-0.0364,-0.0413,-0.0481,-0.0524,-0.057,-0.0606,-0.0626,-0.0717,-0.0718,-0.0656,-0.0637,-0.0577,-0.0451,0,0,0,-0.0269,-0.0296,-0.0312,-0.0352,-0.0409,-0.0463,-0.0493,-0.0562,-0.0621,-0.0683,-0.0686,-0.0655,-0.0636,-0.0575,-0.0496,0,0,0,0,-0.0288,-0.0315,-0.0337,-0.0376,-0.0429,-0.0465,-0.0531,-0.0565,-0.0636,-0.0649,-0.0687,-0.0679,-0.0641,-0.0576,-0.0722,-0.0722,-0.0721,-0.0721,-0.0721,-0.0262,-0.0296,-0.0326,-0.0384,-0.0417,-0.0467,-0.0494,-0.0557,-0.0615,-0.0644,-0.065,-0.0596,-0.0529,-0.0675,-0.0675,-0.0674,-0.0674,-0.0674,-0.0674,-0.0275,-0.0308,-0.0327,-0.0393,-0.0426,-0.0469,-0.0495,-0.0524,-0.0555,-0.0626,-0.0591,-0.0545,-0.0668,-0.0669,-0.067,-0.0671,-0.0671,-0.0672,-0.0672,-0.0287,-0.0307,-0.0358,-0.0416,-0.0457,-0.0494,-0.0446,-0.0489,-0.0519,-0.0491,-0.0419,-0.055,-0.0525,-0.0475,-0.0475,-0.0474,-0.0474,-0.0474,-0.0473,-0.0294,-0.0331,-0.0372,-0.0448,-0.0467,-0.0469,-0.0439,-0.0389,-0.0405,-0.0344,-0.048,-0.0528,-0.0535,-0.0515,-0.0468,-0.0469,-0.047,-0.047,-0.047,-0.0327,-0.0357,-0.0377,-0.0401,-0.0377,-0.0363,-0.0346,-0.0222,-0.0149,-0.0097,-0.0247,-0.026,-0.0265,-0.0278,-0.0249,-0.0121,-0.0119,-0.0117,0,-0.0337,-0.0356,-0.0324,-0.0268,-0.021,-0.0235,-0.0079,-0.0032,-0.0057,-0.0061,-0.017,-0.0346,-0.0353,-0.0369,-0.0377,-0.0347,0,0,0,-0.0328,-0.0317,-0.0254,-0.0193,-0.0108,-0.0015,-0.0025,0.0024,-0.0076,0.0047,-0.0071,-0.0083,-0.0288,-0.0451,-0.049,-0.0498,-0.0467,0,0]},{"header":{"parameterUnit":"m.s-1","parameterCategory":2,"la1":30.2992,"la2":30.254,"lo1":-89.0895,"lo2":-89.0443,"dy":0.0025,"dx":0.0025,"nx":19,"ny":19,"refTime":"2026-03-20T03:00:00:Z","depth":"4","parameterNumber":3,"parameterNumberName":"V-component_of_CURRENTS"},"data":[0,0,0,-0.0053,-0.0053,-0.0104,-0.0105,-0.0178,-0.0179,0,0,0,0,0,0,0,0,0,0,0,-0.0031,-0.0031,-0.0053,-0.0053,-0.0104,-0.0105,-0.0178,-0.0179,0,0,0,0,0,0,0,0,0,0,0,-0.0031,-0.0031,-0.0031,-0.0054,-0.0104,-0.0105,-0.0178,-0.0141,0,0,0,0,0,0,0,0,0,0,-0.0092,-0.007,-0.0031,-0.0031,-0.0054,-0.0104,-0.0105,-0.0139,-0.0143,-0.0153,0,-0.0148,0,-0.0161,-0.0183,-0.0183,0,0,0,-0.0067,-0.0067,-0.0074,-0.0031,-0.0054,-0.0104,-0.0085,-0.0141,-0.0146,-0.0159,-0.015,-0.0152,-0.0162,-0.0183,-0.0183,-0.0265,-0.0265,0,0,-0.0064,-0.0052,-0.007,-0.0076,-0.0051,-0.0083,-0.0087,-0.0144,-0.0146,-0.015,-0.0154,-0.0164,-0.0183,-0.0184,-0.0264,-0.0265,0,0,0,-0.0047,-0.0049,-0.0056,-0.0073,-0.0079,-0.0085,-0.0088,-0.0144,-0.0143,-0.0155,-0.0164,-0.0184,-0.0184,-0.0264,-0.0265,-0.0286,0,0,0,-0.0046,-0.0038,-0.0054,-0.0049,-0.0077,-0.0112,-0.0086,-0.0139,-0.0146,-0.0164,-0.0184,-0.0185,-0.0263,-0.0264,-0.0284,-0.0303,0,0,0,-0.0032,-0.0038,-0.0037,-0.0047,-0.0063,-0.0111,-0.0115,-0.0141,-0.0151,-0.0183,-0.0185,-0.0263,-0.0264,-0.0283,-0.03,-0.0311,0,0,0,-0.0027,-0.0054,-0.0036,-0.0072,-0.0062,-0.0118,-0.0115,-0.0167,-0.0198,-0.0184,-0.0263,-0.0264,-0.0282,-0.0299,-0.031,-0.0205,0,0,0,-0.0068,-0.0058,-0.0083,-0.0069,-0.0116,-0.0113,-0.0174,-0.021,-0.0217,-0.0246,-0.0248,-0.0285,-0.03,-0.0311,-0.0272,0,0,0,0,-0.0102,-0.0111,-0.0125,-0.0142,-0.0167,-0.0192,-0.0221,-0.0235,-0.0275,-0.0236,-0.0301,-0.0311,-0.0316,-0.0252,-0.027,-0.027,-0.027,-0.0269,-0.0269,-0.0147,-0.0155,-0.0186,-0.0197,-0.0225,-0.0256,-0.0285,-0.0307,-0.0306,-0.0331,-0.034,-0.0381,-0.0316,-0.0349,-0.0349,-0.0349,-0.0349,-0.0349,-0.0349,-0.0183,-0.019,-0.0204,-0.0235,-0.0255,-0.0299,-0.0345,-0.0355,-0.0393,-0.0383,-0.0386,-0.0295,-0.0352,-0.0351,-0.0351,-0.035,-0.035,-0.035,-0.035,-0.0176,-0.018,-0.0197,-0.0232,-0.0276,-0.032,-0.0348,-0.0392,-0.042,-0.0436,-0.0359,-0.0401,-0.0385,-0.0433,-0.0433,-0.0433,-0.0433,-0.0433,-0.0434,-0.015,-0.017,-0.0189,-0.0234,-0.0261,-0.0299,-0.0358,-0.0372,-0.0416,-0.0386,-0.0445,-0.041,-0.0407,-0.039,-0.0436,-0.0435,-0.0435,-0.0435,-0.0435,-0.0128,-0.0155,-0.0166,-0.0192,-0.0248,-0.0269,-0.0316,-0.0321,-0.0335,-0.0335,-0.0351,-0.0355,-0.0337,-0.0336,-0.0316,-0.0341,-0.034,-0.0339,0,-0.0122,-0.0135,-0.0145,-0.0175,-0.0206,-0.0254,-0.0223,-0.024,-0.0291,-0.0284,-0.0364,-0.0385,-0.0386,-0.0367,-0.0364,-0.0341,0,0,0,-0.0115,-0.0112,-0.0111,-0.0153,-0.0193,-0.0205,-0.0214,-0.0205,-0.0276,-0.0247,-0.0309,-0.0317,-0.0359,-0.0442,-0.0424,-0.042,-0.0393,0,0]}]]